WD4ITN Weather Reports


time (UTC)temp
C
wind
direction
speed
KPH
gust
KPH
rain 1hr
cm
rain 24hr
cm
rain mn
cm
humidity
%
barometer
mb
20260508033818 8 325 4.8 0.0 0.00 0.00 0.00 57 1011.3
20260508033318 8 317 4.8 0.0 0.00 0.00 0.00 57 1011.3
20260508032835 7 343 3.2 0.0 0.00 0.00 0.00 58 1011.3
20260508032329 7 344 3.2 0.0 0.00 0.00 0.00 59 1011.3
20260508031830 7 324 1.6 0.0 0.00 0.00 0.00 59 1011.2
20260508031332 8 317 1.6 0.0 0.00 0.00 0.00 59 1011.1
20260508030821 8 20 3.2 0.0 0.00 0.00 0.00 60 1011.9
20260508030319 8 337 3.2 0.0 0.00 0.00 0.00 60 1012.0
20260508025836 8 350 3.2 0.0 0.00 0.00 0.00 60 1011.8
20260508025323 8 355 0.0 0.0 0.00 0.00 0.00 61 1011.7
20260508024821 8 22 1.6 0.0 0.00 0.00 0.00 60 1011.6
20260508024320 8 328 1.6 0.0 0.00 0.00 0.00 60 1011.6
20260508023837 8 348 3.2 0.0 0.00 0.00 0.00 59 1011.6
20260508023329 8 324 1.6 0.0 0.00 0.00 0.00 59 1011.5
20260508022827 8 302 0.0 0.0 0.00 0.00 0.00 59 1011.5
20260508022322 8 338 0.0 0.0 0.00 0.00 0.00 59 1011.5
20260508021820 8 336 1.6 0.0 0.00 0.00 0.00 60 1011.4
20260508021323 8 332 1.6 0.0 0.00 0.00 0.00 59 1011.3
20260508020811 8 350 1.6 0.0 0.00 0.00 0.00 60 1011.3
20260508020316 8 211 3.2 0.0 0.00 0.00 0.00 60 1011.2
20260508015841 9 306 4.8 0.0 0.00 0.00 0.00 59 1011.2
20260508015420 8 34 4.8 0.0 0.00 0.00 0.00 60 1011.2
20260508014827 9 345 3.2 0.0 0.00 0.00 0.00 59 1011.0
20260508014320 9 360 1.6 0.0 0.00 0.00 0.00 58 1011.0
20260508013818 9 118 3.2 0.0 0.00 0.00 0.00 58 1010.9
20260508013316 9 219 4.8 0.0 0.00 0.00 0.00 58 1010.9
20260508012837 9 347 3.2 0.0 0.00 0.00 0.00 59 1010.9
20260508012324 9 340 3.2 0.0 0.00 0.00 0.00 58 1010.9
20260508011824 9 269 3.2 0.0 0.00 0.00 0.00 57 1010.7
20260508011321 9 355 0.0 0.0 0.00 0.00 0.00 57 1010.6
20260508010818 10 337 1.6 0.0 0.00 0.00 0.00 57 1010.7
20260508010323 10 327 1.6 0.0 0.00 0.00 0.00 57 1010.5
20260508005815 10 338 1.6 0.0 0.00 0.00 0.00 56 1010.5
20260508005334 10 286 3.2 0.0 0.00 0.00 0.00 55 1010.4
20260508004838 10 299 4.8 0.0 0.00 0.00 0.00 55 1010.3
20260508004312 10 302 4.8 0.0 0.00 0.00 0.00 55 1010.3
20260508003835 10 11 3.2 0.0 0.00 0.00 0.00 54 1010.2
20260508003332 10 298 4.8 0.0 0.00 0.00 0.00 54 1010.1
20260508002821 11 300 6.4 0.0 0.00 0.00 0.00 55 1010.2
20260508002321 11 274 4.8 0.0 0.00 0.00 0.00 53 1010.0
20260508001820 11 17 4.8 0.0 0.00 0.00 0.00 53 1010.0
20260508001330 11 22 8.0 0.0 0.00 0.00 0.00 52 1009.9
20260508000833 11 275 11.3 0.0 0.00 0.00 0.00 52 1009.8
20260508000331 11 263 11.3 0.0 0.00 0.00 0.00 51 1009.8
20260507235822 11 263 11.3 0.0 0.00 0.00 0.00 51 1009.7
20260507235322 11 266 12.9 0.0 0.00 0.00 0.00 51 1009.6
20260507234823 11 275 11.3 0.0 0.00 0.00 0.00 50 1009.6
20260507234343 11 247 9.7 0.0 0.00 0.00 0.00 49 1009.3
20260507233830 11 271 8.0 0.0 0.00 0.00 0.00 50 1009.3
20260507233329 11 338 6.4 0.0 0.00 0.00 0.00 48 1009.2
20260507232824 12 264 8.0 0.0 0.00 0.00 0.00 50 1009.2
20260507232321 12 293 8.0 0.0 0.00 0.00 0.00 50 1009.2
20260507231819 12 231 8.0 0.0 0.00 0.00 0.00 49 1009.1
20260507231343 12 253 8.0 0.0 0.00 0.00 0.00 50 1009.1
20260507230832 12 321 6.4 0.0 0.00 0.00 0.00 51 1009.0
20260507230333 12 263 4.8 0.0 0.00 0.00 0.00 52 1008.8
20260507225821 12 290 4.8 0.0 0.00 0.00 0.00 53 1008.7
20260507225321 12 282 8.0 0.0 0.00 0.00 0.00 53 1008.6
20260507224818 12 259 8.0 0.0 0.00 0.00 0.00 51 1008.6
20260507224327 13 254 8.0 0.0 0.00 0.00 0.00 51 1008.5
20260507223825 13 274 6.4 0.0 0.00 0.00 0.00 52 1008.5
20260507223326 13 258 4.8 0.0 0.00 0.00 0.00 53 1008.6
20260507222815 12 306 4.8 0.0 0.00 0.00 0.00 53 1008.4
20260507222316 13 5 4.8 0.0 0.00 0.00 0.00 53 1008.3
20260507221833 13 109 6.4 0.0 0.00 0.00 0.00 52 1008.3
20260507221332 13 302 9.7 0.0 0.00 0.00 0.00 52 1008.1
20260507220823 13 273 11.3 0.0 0.00 0.00 0.00 50 1008.0
20260507220320 14 275 9.7 0.0 0.00 0.00 0.00 48 1007.9
20260507215841 14 313 6.4 0.0 0.00 0.00 0.00 50 1007.9
20260507215329 14 311 3.2 0.0 0.00 0.00 0.00 51 1007.9
20260507214828 13 13 6.4 0.0 0.00 0.00 0.00 53 1007.8
20260507214335 14 307 6.4 0.0 0.00 0.00 0.00 52 1007.7
20260507213824 14 30 4.8 0.0 0.00 0.00 0.00 54 1007.5
20260507213321 14 299 4.8 0.0 0.00 0.00 0.00 52 1007.5
20260507212838 14 346 6.4 0.0 0.00 0.00 0.00 52 1007.5
20260507212333 14 338 6.4 0.0 0.00 0.00 0.00 53 1007.6
20260507211831 15 355 6.4 0.0 0.00 0.00 0.00 50 1007.5
20260507211328 15 263 8.0 0.0 0.00 0.00 0.00 50 1007.5
20260507210826 15 311 8.0 0.0 0.00 0.00 0.00 51 1007.4
20260507210324 14 17 4.8 0.0 0.00 0.00 0.00 52 1007.4
20260507205814 15 326 3.2 0.0 0.00 0.00 0.00 50 1007.4
20260507205315 15 327 6.4 0.0 0.00 0.00 0.00 51 1007.4
20260507204815 15 223 8.0 0.0 0.00 0.00 0.00 50 1007.4
20260507204336 15 9 8.0 0.0 0.00 0.00 0.00 52 1007.2
20260507203827 15 309 8.0 0.0 0.00 0.00 0.00 55 1007.3
20260507203326 16 319 8.0 0.0 0.00 0.00 0.00 50 1007.3
20260507202814 16 304 6.4 0.0 0.00 0.00 0.00 57 1007.1
20260507202317 15 285 9.7 0.0 0.00 0.00 0.00 52 1007.2
20260507201818 15 298 11.3 0.0 0.00 0.00 0.00 51 1007.3
20260507201338 15 32 8.0 0.0 0.00 0.00 0.00 54 1007.2
20260507200826 16 339 9.7 0.0 0.00 0.00 0.00 54 1007.2
20260507200324 16 5 9.7 0.0 0.00 0.00 0.00 52 1007.1
20260507195841 16 21 4.8 0.0 0.00 0.00 0.00 51 1007.1
20260507195329 16 269 6.4 0.0 0.00 0.00 0.00 57 1007.1
20260507194829 16 256 8.0 0.0 0.00 0.00 0.00 53 1007.1
20260507194329 16 272 8.0 0.0 0.00 0.00 0.00 55 1007.1
20260507193822 16 210 6.4 0.0 0.00 0.00 0.00 53 1007.3
20260507193326 16 288 4.8 0.0 0.00 0.00 0.00 56 1007.5
20260507192843 16 344 6.4 0.0 0.00 0.00 0.00 54 1007.5
20260507192315 16 335 6.4 0.0 0.00 0.00 0.00 55 1007.4
20260507191833 16 26 6.4 0.0 0.00 0.00 0.00 55 1007.3
20260507191334 16 348 8.0 0.0 0.00 0.00 0.00 51 1007.4
20260507190822 16 307 9.7 0.0 0.00 0.00 0.00 57 1007.5
20260507190324 16 194 11.3 0.0 0.00 0.00 0.00 59 1007.5
20260507185811 15 252 14.5 0.0 0.00 0.00 0.00 61 1007.4
20260507185332 16 234 12.9 0.0 0.00 0.00 0.00 62 1007.5
20260507184831 15 228 8.0 0.0 0.00 0.00 0.00 58 1007.7
20260507184328 15 236 9.7 0.0 0.00 0.00 0.00 60 1007.8
20260507183817 15 296 11.3 0.0 0.00 0.00 0.00 64 1007.8
20260507183315 15 249 9.7 0.0 0.00 0.00 0.00 64 1007.6
20260507182834 15 333 8.0 0.0 0.00 0.00 0.00 66 1007.6
20260507182334 14 294 8.0 0.0 0.00 0.00 0.00 63 1007.7
20260507181832 13 215 4.8 0.0 0.00 0.00 0.00 66 1007.7
20260507181328 13 204 3.2 0.0 0.00 0.00 0.00 68 1007.8
20260507180825 13 355 4.8 0.0 0.00 0.00 0.00 68 1007.9
20260507180323 13 355 8.0 0.0 0.00 0.00 0.00 67 1008.1
20260507175820 13 360 6.4 0.0 0.00 0.00 0.00 65 1008.1
20260507175324 13 339 3.2 0.0 0.00 0.00 0.00 68 1008.1
20260507174822 13 248 3.2 0.0 0.00 0.00 0.00 68 1008.1
20260507174319 13 343 4.8 0.0 0.00 0.00 0.00 70 1008.2
20260507173816 13 332 8.0 0.0 0.00 0.00 0.00 70 1008.4
20260507173333 12 51 11.3 0.0 0.00 0.00 0.00 68 1008.4
20260507172826 12 5 8.0 0.0 0.00 0.00 0.00 68 1008.4
20260507172323 12 5 4.8 0.0 0.00 0.00 0.00 69 1008.4
20260507171821 12 19 4.8 0.0 0.00 0.00 0.00 69 1008.5
20260507171315 12 360 6.4 0.0 0.00 0.00 0.00 70 1008.7
20260507170834 12 11 4.8 0.0 0.00 0.00 0.00 69 1008.6
20260507170314 12 327 3.2 0.0 0.00 0.00 0.00 71 1008.6
20260507165827 12 298 3.2 0.0 0.00 0.00 0.00 70 1008.8
20260507165330 12 46 8.0 0.0 0.00 0.00 0.00 69 1008.8
20260507164828 12 19 8.0 0.0 0.00 0.00 0.00 68 1008.9
20260507164322 12 339 4.8 0.0 0.00 0.00 0.00 68 1008.9
20260507163820 13 341 3.2 0.0 0.00 0.00 0.00 68 1008.8
20260507163340 13 319 4.8 0.0 0.00 0.00 0.00 66 1009.1
20260507162831 13 355 4.8 0.0 0.00 0.00 0.00 69 1009.1
20260507162327 13 312 6.4 0.0 0.00 0.00 0.00 70 1009.2
20260507161831 13 300 8.0 0.0 0.00 0.00 0.00 68 1009.2
20260507161319 13 5 6.4 0.0 0.00 0.00 0.00 68 1009.2
20260507160820 13 20 6.4 0.0 0.00 0.00 0.00 70 1009.3
20260507160334 13 273 6.4 0.0 0.00 0.00 0.00 73 1009.5
20260507155824 13 296 8.0 0.0 0.00 0.00 0.00 69 1009.4
20260507155321 12 355 8.0 0.0 0.00 0.00 0.00 68 1009.5
20260507154824 12 5 6.4 0.0 0.00 0.00 0.00 69 1009.4
20260507154316 12 319 6.4 0.0 0.00 0.00 0.00 71 1009.7
20260507153820 12 344 9.7 0.0 0.00 0.00 0.00 69 1009.7
20260507153338 12 313 8.0 0.0 0.00 0.00 0.00 69 1009.6
20260507152852 12 26 9.7 9.7 0.00 0.00 0.00 70 1009.7
20260507152826 12 9 9.7 0.0 0.00 0.00 0.00 71 1009.8
20260507152330 12 26 9.7 0.0 0.00 0.00 0.00 70 1009.7
20260507152235 12 346 8.0 0.0 0.00 0.00 0.00 69 1009.7
20260507151830 12 346 8.0 0.0 0.00 0.00 0.00 69 1009.7
20260507151322 12 351 4.8 0.0 0.00 0.00 0.00 68 1009.8
20260507150818 12 355 4.8 0.0 0.00 0.00 0.00 72 1009.8
20260507150320 11 9 4.8 0.0 0.00 0.00 0.00 73 1009.8
20260507145833 11 325 3.2 0.0 0.00 0.00 0.00 72 1009.8
20260507145331 11 49 4.8 0.0 0.00 0.00 0.00 75 1009.8
20260507144834 10 348 6.4 0.0 0.00 0.00 0.00 77 1009.9
20260507144331 10 76 6.4 0.0 0.00 0.00 0.00 75 1009.9
20260507143828 10 332 6.4 0.0 0.00 0.00 0.00 76 1010.0
20260507143329 9 36 4.8 0.0 0.00 0.00 0.00 75 1010.1
20260507142817 9 42 4.8 0.0 0.00 0.00 0.00 78 1010.2
20260507142333 9 5 4.8 0.0 0.00 0.00 0.00 80 1010.2
20260507141834 9 50 4.8 0.0 0.00 0.00 0.00 81 1010.2
20260507141321 9 5 3.2 0.0 0.00 0.00 0.00 82 1010.4
20260507140823 9 331 1.6 0.0 0.00 0.00 0.00 82 1010.4
20260507140320 8 326 3.2 0.0 0.00 0.00 0.00 83 1010.5
20260507135839 8 360 1.6 0.0 0.00 0.00 0.00 82 1010.5
20260507135328 8 348 1.6 0.0 0.00 0.00 0.00 82 1010.6
20260507134825 8 322 4.8 0.0 0.00 0.00 0.00 81 1010.6
20260507134317 8 5 4.8 0.0 0.00 0.00 0.00 80 1010.6
20260507133834 8 348 4.8 0.0 0.00 0.00 0.00 82 1011.3
20260507133331 8 331 6.4 0.0 0.00 0.00 0.00 83 1011.5
20260507132819 8 343 4.8 0.0 0.00 0.00 0.00 85 1011.5
20260507132319 8 24 4.8 0.0 0.00 0.00 0.00 86 1011.4
20260507131819 8 349 3.2 0.0 0.00 0.00 0.00 86 1011.6
20260507131340 8 322 6.4 0.0 0.00 0.00 0.00 86 1011.5
20260507130830 8 307 8.0 0.0 0.00 0.00 0.00 86 1011.5
20260507130329 8 350 6.4 0.0 0.00 0.00 0.00 86 1011.6
20260507125818 8 5 4.8 0.0 0.00 0.00 0.00 86 1011.5
20260507125316 8 340 4.8 0.0 0.00 0.00 0.00 87 1011.5
20260507124833 8 336 4.8 0.0 0.00 0.00 0.00 87 1011.5
20260507124337 8 331 4.8 0.0 0.00 0.00 0.00 87 1011.6
20260507123828 8 350 6.4 0.0 0.00 0.00 0.00 88 1011.6
20260507123330 8 360 6.4 0.0 0.00 0.00 0.00 87 1011.6
20260507122821 8 34 6.4 0.0 0.00 0.00 0.00 88 1011.5
20260507122322 8 351 4.8 0.0 0.00 0.00 0.00 88 1011.4
20260507121823 9 355 3.2 0.0 0.00 0.00 0.00 88 1011.4
20260507121313 9 283 1.6 0.0 0.00 0.00 0.00 88 1011.3
20260507120813 9 346 3.2 0.0 0.00 0.00 0.00 88 1011.3
20260507120320 9 360 4.8 0.0 0.00 0.00 0.00 88 1011.3
20260507115827 9 355 4.8 0.0 0.00 0.00 0.00 88 1011.2
20260507115328 9 309 3.2 0.0 0.00 0.00 0.00 88 1011.1
20260507114831 9 13 3.2 0.0 0.00 0.00 0.00 88 1011.1
20260507114320 9 71 3.2 0.0 0.00 0.00 0.00 88 1011.1
20260507113820 9 320 3.2 0.0 0.00 0.00 0.00 89 1010.9
20260507113318 9 5 3.2 0.0 0.00 0.00 0.00 89 1011.0
20260507112831 9 5 4.8 0.0 0.00 0.00 0.00 89 1010.9
20260507112328 9 5 3.2 0.0 0.00 0.00 0.00 89 1010.7
20260507111826 9 38 3.2 0.0 0.00 0.00 0.00 89 1010.6
20260507111320 9 11 4.8 0.0 0.00 0.00 0.00 89 1010.6
20260507110822 9 331 4.8 0.0 0.00 0.00 0.00 89 1010.3
20260507110316 9 334 3.2 0.0 0.00 0.00 0.00 88 1010.2
20260507105818 10 360 4.8 0.0 0.00 0.00 0.00 89 1010.5
20260507105322 9 271 6.4 0.0 0.00 0.00 0.00 89 1010.4
20260507104814 10 32 4.8 0.0 0.00 0.00 0.00 88 1010.3
20260507104315 10 13 3.2 0.0 0.00 0.00 0.00 89 1010.3
20260507103833 10 24 3.2 0.0 0.00 0.00 0.00 89 1010.1
20260507103331 10 5 4.8 0.0 0.00 0.00 0.00 90 1010.3
20260507102828 10 31 4.8 0.0 0.00 0.00 0.00 90 1010.0
20260507102324 10 19 4.8 0.0 0.00 0.00 0.00 90 1010.1
20260507101818 10 55 3.2 0.0 0.00 0.00 0.00 90 1010.1
20260507101319 10 34 3.2 0.0 0.00 0.00 0.00 90 1010.2
20260507100836 10 14 1.6 0.0 0.00 0.00 0.00 91 1010.3
20260507100331 10 51 3.2 0.0 0.00 0.00 0.00 91 1010.3
20260507095828 10 51 4.8 0.0 0.00 0.00 0.00 91 1010.3
20260507095326 10 13 4.8 0.0 0.00 0.00 0.00 91 1010.2
20260507094814 10 28 4.8 0.0 0.00 0.00 0.00 91 1010.2
20260507094332 10 41 4.8 0.0 0.00 0.00 0.00 90 1010.1
20260507093830 10 66 4.8 0.0 0.00 0.00 0.00 91 1010.1
20260507093330 10 62 6.4 0.0 0.00 0.00 0.00 91 1010.0
20260507092821 10 45 6.4 0.0 0.00 0.00 0.00 90 1010.1
20260507092322 10 21 6.4 0.0 0.00 0.00 0.00 90 1010.1
20260507091812 10 24 8.0 0.0 0.00 0.00 0.00 90 1009.9
20260507091328 10 32 8.0 0.0 0.00 0.00 0.00 90 1009.8
20260507090815 10 5 6.4 0.0 0.00 0.00 0.00 90 1009.8
20260507090320 10 39 6.4 0.0 0.00 0.00 0.00 90 1009.7
20260507085824 10 9 4.8 0.0 0.00 0.00 0.00 90 1009.7
20260507085327 10 31 4.8 0.0 0.00 0.00 0.00 90 1009.7
20260507084818 10 44 4.8 0.0 0.00 0.00 0.00 89 1009.8
20260507084314 10 64 4.8 0.0 0.00 0.00 0.00 89 1009.5
20260507083832 10 23 4.8 0.0 0.00 0.00 0.00 89 1009.9
20260507083327 10 57 4.8 0.0 0.00 0.00 0.00 89 1009.8
20260507082825 10 62 4.8 0.0 0.00 0.00 0.00 88 1009.8
20260507082327 10 35 6.4 0.0 0.00 0.00 0.00 88 1009.9
20260507081822 10 52 6.4 0.0 0.00 0.00 0.00 88 1009.6
20260507081320 11 38 6.4 0.0 0.00 0.00 0.00 88 1009.5
20260507080841 11 42 4.8 0.0 0.00 0.00 0.00 88 1009.9
20260507080329 11 19 4.8 0.0 0.00 0.00 0.00 87 1010.0
20260507075830 11 32 6.4 0.0 0.00 0.00 0.00 87 1009.9
20260507075328 11 26 4.8 0.0 0.00 0.00 0.00 87 1010.0
20260507074821 11 45 6.4 0.0 0.00 0.00 0.00 87 1010.0
20260507074324 11 5 6.4 0.0 0.00 0.00 0.00 87 1010.1
20260507073816 11 22 3.2 0.0 0.00 0.00 0.00 87 1010.1
20260507073317 11 46 1.6 0.0 0.00 0.00 0.00 87 1010.1
20260507072815 11 59 3.2 0.0 0.00 0.00 0.00 87 1010.1
20260507072335 11 39 4.8 0.0 0.00 0.00 0.00 87 1010.0
20260507071829 11 40 4.8 0.0 0.00 0.00 0.00 87 1010.1
20260507071330 11 35 4.8 0.0 0.00 0.00 0.00 87 1009.8
20260507070828 11 9 4.8 0.0 0.00 0.00 0.00 87 1010.0
20260507070317 11 31 3.2 0.0 0.00 0.00 0.00 87 1009.9
20260507065814 12 16 3.2 0.0 0.00 0.00 0.00 86 1009.8
20260507065332 12 26 4.8 0.0 0.00 0.00 0.00 86 1009.6
20260507064833 12 360 3.2 0.0 0.00 0.00 0.00 86 1009.5
20260507064324 12 355 1.6 0.0 0.00 0.00 0.00 86 1009.5
20260507063821 12 12 0.0 0.0 0.00 0.00 0.00 86 1009.5
20260507063325 12 23 0.0 0.0 0.00 0.00 0.00 85 1009.6
20260507062823 12 23 1.6 0.0 0.00 0.00 0.00 85 1009.5
20260507062322 12 275 6.4 0.0 0.00 0.00 0.00 86 1009.7
20260507061825 12 231 6.4 0.0 0.00 0.00 0.00 86 1009.5
20260507061327 12 232 3.2 0.0 0.00 0.00 0.00 87 1009.8
20260507060841 12 267 1.6 0.0 0.00 0.00 0.00 87 1009.7
20260507060329 12 267 3.2 0.0 0.00 0.00 0.00 87 1009.7
20260507055828 12 300 3.2 0.0 0.00 0.00 0.00 88 1009.6
20260507055325 12 277 6.4 0.0 0.00 0.00 0.00 88 1009.6
20260507054842 12 244 8.0 0.0 0.00 0.00 0.00 88 1009.6
20260507054331 13 227 8.0 0.0 0.00 0.00 0.00 88 1009.6
20260507053814 13 225 8.0 0.0 0.00 0.00 0.00 87 1009.8
20260507053336 13 221 9.7 0.0 0.00 0.00 0.00 87 1010.0
20260507052830 13 212 9.7 0.0 0.00 0.00 0.00 87 1010.0
20260507052329 13 225 9.7 0.0 0.00 0.00 0.00 86 1010.0
20260507051835 13 206 11.3 0.0 0.00 0.00 0.00 86 1009.7
20260507051329 13 261 8.0 0.0 0.00 0.00 0.00 87 1010.0
20260507050831 13 249 6.4 0.0 0.00 0.00 0.00 89 1009.8
20260507050329 13 250 9.7 0.0 0.00 0.00 0.00 90 1010.2
20260507045818 13 213 8.0 0.0 0.00 0.00 0.00 90 1009.6
20260507045315 13 234 6.4 0.0 0.00 0.00 0.00 90 1009.3
20260507044833 13 234 8.0 0.0 0.00 0.00 0.00 90 1009.5
20260507044334 13 234 9.7 0.0 0.00 0.00 0.00 90 1009.7
20260507043828 13 207 9.7 0.0 0.00 0.00 0.00 90 1009.4
20260507043328 13 218 8.0 0.0 0.00 0.00 0.00 90 1009.6
20260507042825 13 225 6.4 0.0 0.00 0.00 0.00 90 1009.6
20260507042332 13 254 6.4 0.0 0.00 0.00 0.00 90 1009.3
20260507041821 13 254 8.0 0.0 0.00 0.00 0.00 90 1009.3
20260507041317 13 235 8.0 0.0 0.00 0.00 0.00 90 1009.4
20260507040817 13 242 9.7 0.0 0.00 0.00 0.00 90 1009.3
20260507040326 13 238 9.7 0.0 0.00 0.00 0.00 90 1009.0
20260507035827 13 254 9.7 0.0 0.00 0.00 0.84 90 1009.0
20260507035324 13 208 9.7 0.0 0.00 0.00 0.84 89 1008.7
20260507034842 13 242 11.3 0.0 0.00 0.00 0.84 89 1008.9
20260507034315 13 211 16.1 0.0 0.00 0.00 0.84 89 1008.9